Time,TemperatureF,DewpointF,PressureIn,WindDirection,WindDirectionDegrees,WindSpeedMPH,WindSpeedGustMPH,Humidity,HourlyPrecipIn,Conditions,Clouds,dailyrainin,SolarRadiationWatts/m^2,SoftwareType,DateUTC
2013-06-26 00:01:00,68.4,67.2,29.95,SW,234,0.0,0.0,96,0.00,,---,0.35,0.00,VWS V14.01,2013-06-26 04:01:00,
2013-06-26 00:02:00,68.4,67.2,29.95,SW,234,0.0,0.0,96,0.00,,---,0.35,0.00,VWS V14.01,2013-06-26 04:02:00,
2013-06-26 00:08:00,68.3,67.1,29.94,SW,234,0.0,0.0,96,0.00,,---,0.35,0.00,VWS V14.01,2013-06-26 04:08:00,
2013-06-26 00:13:00,68.2,67.0,29.95,SW,234,0.0,0.0,96,0.00,,---,0.00,0.00,VWS V14.01,2013-06-26 04:13:00,
2013-06-26 00:18:00,68.3,67.1,29.94,SW,234,0.0,0.0,96,0.00,,---,0.00,0.00,VWS V14.01,2013-06-26 04:18:00,
2013-06-26 00:23:00,68.3,67.1,29.94,SW,234,0.0,0.0,96,0.00,,---,0.00,0.00,VWS V14.01,2013-06-26 04:23:00,
2013-06-26 00:28:00,68.3,67.1,29.94,SW,234,0.0,0.0,96,0.00,,---,0.00,0.00,VWS V14.01,2013-06-26 04:28:00,
2013-06-26 00:33:00,68.2,67.0,29.94,SW,234,0.0,0.0,96,0.00,,---,0.00,0.00,VWS V14.01,2013-06-26 04:33:00,
2013-06-26 00:38:00,68.1,66.9,29.94,SW,234,0.0,0.0,96,0.00,,---,0.00,0.00,VWS V14.01,2013-06-26 04:38:00,
2013-06-26 00:43:00,68.2,67.3,29.94,SW,234,0.0,0.0,97,0.00,,---,0.00,0.00,VWS V14.01,2013-06-26 04:43:00,
2013-06-26 00:48:00,68.1,67.2,29.94,SW,234,0.0,0.0,97,0.00,,---,0.00,0.00,VWS V14.01,2013-06-26 04:48:00,
2013-06-26 00:54:00,68.0,67.1,29.94,SW,234,0.0,0.0,97,0.00,,---,0.00,0.00,VWS V14.01,2013-06-26 04:54:00,
2013-06-26 00:59:00,67.9,67.0,29.94,SW,234,0.0,0.0,97,0.00,,---,0.00,0.00,VWS V14.01,2013-06-26 04:59:00,
2013-06-26 01:04:00,67.8,66.9,29.94,SW,234,0.0,0.0,97,0.00,,---,0.00,0.00,VWS V14.01,2013-06-26 05:04:00,
2013-06-26 01:09:00,67.6,66.4,29.94,SW,234,0.0,0.0,96,0.00,,---,0.00,0.00,VWS V14.01,2013-06-26 05:09:00,
2013-06-26 01:14:00,67.5,66.3,29.93,SW,234,0.0,0.0,96,0.00,,---,0.00,0.00,VWS V14.01,2013-06-26 05:14:00,
2013-06-26 01:19:00,67.8,66.9,29.93,SW,234,0.0,0.0,97,0.00,,---,0.00,0.00,VWS V14.01,2013-06-26 05:19:00,
2013-06-26 01:24:00,68.0,67.1,29.93,SW,234,0.0,0.0,97,0.00,,---,0.00,0.00,VWS V14.01,2013-06-26 05:24:00,
2013-06-26 01:29:00,67.9,67.0,29.93,SW,234,0.0,0.0,97,0.00,,---,0.00,0.00,VWS V14.01,2013-06-26 05:29:00,
2013-06-26 01:34:00,68.0,67.1,29.93,SW,234,0.0,0.0,97,0.00,,---,0.00,0.00,VWS V14.01,2013-06-26 05:34:00,
2013-06-26 01:39:00,67.9,67.0,29.93,SW,234,0.0,0.0,97,0.00,,---,0.00,0.00,VWS V14.01,2013-06-26 05:39:00,
2013-06-26 01:45:00,67.8,66.9,29.92,SW,234,0.0,0.0,97,0.00,,---,0.00,0.00,VWS V14.01,2013-06-26 05:45:00,
2013-06-26 01:50:00,67.7,66.8,29.92,SW,234,0.0,0.0,97,0.00,,---,0.00,0.00,VWS V14.01,2013-06-26 05:50:00,
2013-06-26 01:55:00,67.6,66.7,29.92,SW,234,0.0,0.0,97,0.00,,---,0.00,0.00,VWS V14.01,2013-06-26 05:55:00,
2013-06-26 02:00:00,67.6,66.7,29.92,SW,234,0.0,0.0,97,0.00,,---,0.00,0.00,VWS V14.01,2013-06-26 06:00:00,
2013-06-26 02:05:00,67.5,66.6,29.92,SW,234,0.0,0.0,97,0.00,,---,0.00,0.00,VWS V14.01,2013-06-26 06:05:00,
2013-06-26 02:10:00,67.4,66.5,29.92,SW,234,0.0,0.0,97,0.00,,---,0.00,0.00,VWS V14.01,2013-06-26 06:10:00,
2013-06-26 02:15:00,67.4,66.5,29.92,SW,234,0.0,0.0,97,0.00,,---,0.00,0.00,VWS V14.01,2013-06-26 06:15:00,
2013-06-26 02:20:00,67.3,66.4,29.92,SW,234,0.0,0.0,97,0.00,,---,0.00,0.00,VWS V14.01,2013-06-26 06:20:00,
2013-06-26 02:25:00,67.0,66.1,29.92,SW,234,0.0,0.0,97,0.00,,---,0.00,0.00,VWS V14.01,2013-06-26 06:25:00,
2013-06-26 02:30:00,66.9,65.7,29.92,SW,234,0.0,0.0,96,0.00,,---,0.00,0.00,VWS V14.01,2013-06-26 06:30:00,
2013-06-26 02:36:00,67.0,66.1,29.92,SW,234,0.0,0.0,97,0.00,,---,0.00,0.00,VWS V14.01,2013-06-26 06:36:00,
2013-06-26 02:41:00,67.0,66.1,29.91,SW,234,0.0,0.0,97,0.00,,---,0.00,0.00,VWS V14.01,2013-06-26 06:41:00,
2013-06-26 02:46:00,66.9,66.0,29.92,SW,234,0.0,0.0,97,0.00,,---,0.00,0.00,VWS V14.01,2013-06-26 06:46:00,
2013-06-26 02:51:00,66.8,65.9,29.92,SW,234,0.0,0.0,97,0.00,,---,0.00,0.00,VWS V14.01,2013-06-26 06:51:00,
2013-06-26 02:56:00,66.9,66.0,29.92,SW,234,0.0,1.0,97,0.00,,---,0.00,0.00,VWS V14.01,2013-06-26 06:56:00,
2013-06-26 03:01:00,67.1,66.2,29.92,SW,234,0.0,0.0,97,0.00,,---,0.00,0.00,VWS V14.01,2013-06-26 07:01:00,
2013-06-26 03:06:00,67.2,66.6,29.92,SW,234,0.0,0.0,98,0.00,,---,0.00,0.00,VWS V14.01,2013-06-26 07:06:00,
2013-06-26 03:11:00,67.1,66.5,29.92,SW,234,0.0,0.0,98,0.00,,---,0.00,0.00,VWS V14.01,2013-06-26 07:11:00,
2013-06-26 03:16:00,67.1,66.2,29.91,SW,234,0.0,0.0,97,0.00,,---,0.00,0.00,VWS V14.01,2013-06-26 07:16:00,
2013-06-26 03:22:00,67.0,66.1,29.91,SW,234,0.0,0.0,97,0.00,,---,0.00,0.00,VWS V14.01,2013-06-26 07:22:00,
2013-06-26 03:27:00,67.0,66.1,29.92,SW,234,0.0,0.0,97,0.00,,---,0.00,0.00,VWS V14.01,2013-06-26 07:27:00,
2013-06-26 03:32:00,66.9,66.0,29.92,SW,234,0.0,0.0,97,0.00,,---,0.00,0.00,VWS V14.01,2013-06-26 07:32:00,
2013-06-26 03:37:00,67.0,66.1,29.91,SW,234,0.0,0.0,97,0.00,,---,0.00,0.00,VWS V14.01,2013-06-26 07:37:00,
2013-06-26 03:42:00,67.1,66.5,29.92,SW,234,0.0,0.0,98,0.00,,---,0.00,0.00,VWS V14.01,2013-06-26 07:42:00,
2013-06-26 03:47:00,67.0,66.4,29.91,SW,234,0.0,0.0,98,0.00,,---,0.00,0.00,VWS V14.01,2013-06-26 07:47:00,
2013-06-26 03:52:00,66.9,66.0,29.92,SW,234,0.0,0.0,97,0.00,,---,0.00,0.00,VWS V14.01,2013-06-26 07:52:00,
2013-06-26 03:57:00,66.7,65.8,29.92,SW,234,0.0,0.0,97,0.00,,---,0.00,0.00,VWS V14.01,2013-06-26 07:57:00,
2013-06-26 04:02:00,66.6,65.7,29.92,SW,234,0.0,0.0,97,0.00,,---,0.00,0.00,VWS V14.01,2013-06-26 08:02:00,
2013-06-26 04:08:00,66.6,66.0,29.92,SW,234,0.0,0.0,98,0.00,,---,0.00,0.00,VWS V14.01,2013-06-26 08:08:00,
2013-06-26 04:13:00,66.6,66.0,29.92,SW,234,0.0,0.0,98,0.00,,---,0.00,0.00,VWS V14.01,2013-06-26 08:13:00,
2013-06-26 04:18:00,66.5,65.9,29.92,SW,234,0.0,0.0,98,0.00,,---,0.00,0.00,VWS V14.01,2013-06-26 08:18:00,
2013-06-26 04:23:00,66.4,65.5,29.92,SW,234,0.0,0.0,97,0.00,,---,0.00,0.00,VWS V14.01,2013-06-26 08:23:00,
2013-06-26 04:28:00,66.4,65.5,29.92,SW,234,0.0,0.0,97,0.00,,---,0.00,0.00,VWS V14.01,2013-06-26 08:28:00,
2013-06-26 04:33:00,66.4,65.5,29.92,SW,234,0.0,0.0,97,0.00,,---,0.00,0.00,VWS V14.01,2013-06-26 08:33:00,
2013-06-26 04:38:00,66.3,65.7,29.93,SW,234,0.0,0.0,98,0.00,,---,0.00,0.00,VWS V14.01,2013-06-26 08:38:00,
2013-06-26 04:43:00,66.5,65.9,29.93,SW,234,0.0,0.0,98,0.00,,---,0.00,0.00,VWS V14.01,2013-06-26 08:43:00,
2013-06-26 04:48:00,66.5,65.9,29.92,SW,234,0.0,0.0,98,0.00,,---,0.00,0.00,VWS V14.01,2013-06-26 08:48:00,
2013-06-26 04:53:00,66.6,66.0,29.93,SW,234,0.0,0.0,98,0.00,,---,0.00,0.00,VWS V14.01,2013-06-26 08:53:00,
2013-06-26 04:59:00,66.6,66.0,29.93,SW,234,0.0,0.0,98,0.00,,---,0.00,0.00,VWS V14.01,2013-06-26 08:59:00,
2013-06-26 05:04:00,66.7,66.1,29.93,SW,234,0.0,0.0,98,0.00,,---,0.00,0.00,VWS V14.01,2013-06-26 09:04:00,
2013-06-26 05:09:00,66.8,66.2,29.93,SW,234,0.0,0.0,98,0.00,,---,0.00,0.00,VWS V14.01,2013-06-26 09:09:00,
2013-06-26 05:14:00,67.0,66.4,29.93,SW,234,0.0,0.0,98,0.00,,---,0.00,0.00,VWS V14.01,2013-06-26 09:14:00,
2013-06-26 05:19:00,67.1,66.5,29.94,SW,234,0.0,0.0,98,0.00,,---,0.00,0.00,VWS V14.01,2013-06-26 09:19:00,
2013-06-26 05:24:00,67.2,66.6,29.94,SW,234,0.0,0.0,98,0.00,,---,0.00,0.00,VWS V14.01,2013-06-26 09:24:00,
2013-06-26 05:29:00,67.2,66.6,29.94,SW,234,0.0,0.0,98,0.00,,---,0.00,0.00,VWS V14.01,2013-06-26 09:29:00,
2013-06-26 05:34:00,67.4,66.8,29.94,SW,234,0.0,0.0,98,0.00,,---,0.00,0.00,VWS V14.01,2013-06-26 09:34:00,
2013-06-26 05:39:00,67.6,67.0,29.94,SW,234,0.0,0.0,98,0.00,,---,0.00,0.00,VWS V14.01,2013-06-26 09:39:00,
2013-06-26 05:45:00,67.6,67.0,29.94,SW,234,0.0,0.0,98,0.00,,---,0.00,0.00,VWS V14.01,2013-06-26 09:45:00,
2013-06-26 05:50:00,67.6,67.0,29.94,SW,234,0.0,0.0,98,0.00,,---,0.00,0.00,VWS V14.01,2013-06-26 09:50:00,
2013-06-26 05:55:00,67.7,67.1,29.94,SW,234,0.0,0.0,98,0.00,,---,0.00,0.00,VWS V14.01,2013-06-26 09:55:00,
2013-06-26 06:00:00,67.8,67.2,29.94,SW,234,0.0,0.0,98,0.00,,---,0.00,0.00,VWS V14.01,2013-06-26 10:00:00,
2013-06-26 06:05:00,67.9,67.3,29.94,SW,234,0.0,0.0,98,0.00,,---,0.00,0.00,VWS V14.01,2013-06-26 10:05:00,
2013-06-26 06:10:00,68.0,67.4,29.94,SW,234,0.0,0.0,98,0.00,,---,0.00,0.00,VWS V14.01,2013-06-26 10:10:00,
2013-06-26 06:15:00,68.0,67.4,29.95,SW,234,0.0,0.0,98,0.00,,---,0.00,0.00,VWS V14.01,2013-06-26 10:15:00,
2013-06-26 06:20:00,68.0,67.4,29.95,SW,234,0.0,0.0,98,0.00,,---,0.00,0.00,VWS V14.01,2013-06-26 10:20:00,
2013-06-26 06:25:00,68.0,67.4,29.95,SW,234,0.0,0.0,98,0.00,,---,0.00,0.00,VWS V14.01,2013-06-26 10:25:00,
2013-06-26 06:31:00,68.0,67.4,29.95,SW,234,0.0,0.0,98,0.00,,---,0.00,0.00,VWS V14.01,2013-06-26 10:31:00,
2013-06-26 06:36:00,68.0,67.4,29.95,SW,234,0.0,0.0,98,0.00,,---,0.00,9.00,VWS V14.01,2013-06-26 10:36:00,
2013-06-26 06:41:00,68.0,67.4,29.95,SW,234,0.0,0.0,98,0.00,,---,0.00,12.00,VWS V14.01,2013-06-26 10:41:00,
2013-06-26 06:46:00,68.1,67.5,29.95,SW,234,0.0,0.0,98,0.00,,---,0.00,12.00,VWS V14.01,2013-06-26 10:46:00,
2013-06-26 06:51:00,68.1,67.5,29.95,SW,234,0.0,0.0,98,0.00,,---,0.00,14.00,VWS V14.01,2013-06-26 10:51:00,
2013-06-26 06:56:00,68.2,67.6,29.95,SW,234,0.0,0.0,98,0.00,,---,0.00,19.00,VWS V14.01,2013-06-26 10:56:00,
2013-06-26 07:01:00,68.2,67.6,29.95,SW,234,0.0,0.0,98,0.00,,---,0.00,19.00,VWS V14.01,2013-06-26 11:01:00,
2013-06-26 07:06:00,68.3,67.7,29.95,SW,234,0.0,0.0,98,0.00,,---,0.00,32.00,VWS V14.01,2013-06-26 11:06:00,
2013-06-26 07:11:00,68.5,67.9,29.94,SW,234,0.0,0.0,98,0.00,,---,0.00,42.00,VWS V14.01,2013-06-26 11:11:00,
2013-06-26 07:16:00,68.7,68.4,29.94,SW,234,0.0,0.0,99,0.00,,---,0.00,47.00,VWS V14.01,2013-06-26 11:16:00,
2013-06-26 07:22:00,68.9,68.3,29.94,SW,234,0.0,0.0,98,0.00,,---,0.00,40.00,VWS V14.01,2013-06-26 11:22:00,
2013-06-26 07:27:00,69.1,68.5,29.95,SW,234,0.0,0.0,98,0.00,,---,0.00,51.00,VWS V14.01,2013-06-26 11:27:00,
2013-06-26 07:32:00,69.3,69.0,29.94,SW,234,0.0,2.0,99,0.00,,---,0.00,84.00,VWS V14.01,2013-06-26 11:32:00,
2013-06-26 07:37:00,69.5,69.2,29.95,SW,234,0.0,2.0,99,0.00,,---,0.00,81.00,VWS V14.01,2013-06-26 11:37:00,
2013-06-26 07:42:00,69.8,69.2,29.95,SW,234,0.0,2.0,98,0.00,,---,0.00,118.00,VWS V14.01,2013-06-26 11:42:00,
2013-06-26 07:47:00,70.2,69.9,29.94,SW,234,0.0,2.0,99,0.00,,---,0.00,91.00,VWS V14.01,2013-06-26 11:47:00,
2013-06-26 07:52:00,70.4,70.1,29.95,SW,234,0.0,0.0,99,0.00,,---,0.00,128.00,VWS V14.01,2013-06-26 11:52:00,
2013-06-26 07:57:00,70.6,70.3,29.95,SW,234,2.0,3.0,99,0.00,,---,0.00,97.00,VWS V14.01,2013-06-26 11:57:00,
2013-06-26 08:02:00,70.7,70.4,29.95,SW,234,0.0,2.0,99,0.00,,---,0.00,123.00,VWS V14.01,2013-06-26 12:02:00,
2013-06-26 08:08:00,70.7,70.4,29.95,SW,234,1.0,3.0,99,0.00,,---,0.00,116.00,VWS V14.01,2013-06-26 12:08:00,
2013-06-26 08:13:00,70.8,70.2,29.95,SW,234,0.0,3.0,98,0.00,,---,0.00,158.00,VWS V14.01,2013-06-26 12:13:00,
2013-06-26 08:18:00,71.0,70.4,29.95,WSW,238,4.0,5.0,98,0.00,,---,0.00,127.00,VWS V14.01,2013-06-26 12:18:00,
2013-06-26 08:23:00,71.1,70.5,29.95,WSW,257,1.0,3.0,98,0.00,,---,0.00,132.00,VWS V14.01,2013-06-26 12:23:00,
2013-06-26 08:28:00,71.2,70.6,29.95,WSW,256,1.0,6.0,98,0.00,,---,0.00,137.00,VWS V14.01,2013-06-26 12:28:00,
2013-06-26 08:33:00,71.3,70.4,29.95,West,269,2.0,5.0,97,0.00,,---,0.00,174.00,VWS V14.01,2013-06-26 12:33:00,
2013-06-26 08:38:00,71.5,70.3,29.95,WSW,253,3.0,6.0,96,0.00,,---,0.00,306.00,VWS V14.01,2013-06-26 12:38:00,
2013-06-26 08:43:00,71.8,70.6,29.95,West,263,0.0,7.0,96,0.00,,---,0.00,258.00,VWS V14.01,2013-06-26 12:43:00,
2013-06-26 08:48:00,72.2,70.7,29.95,West,270,0.0,7.0,95,0.00,,---,0.00,364.00,VWS V14.01,2013-06-26 12:48:00,
2013-06-26 08:53:00,72.4,70.6,29.95,WSW,242,2.0,7.0,94,0.00,,---,0.00,218.00,VWS V14.01,2013-06-26 12:53:00,
2013-06-26 08:59:00,72.5,70.4,29.95,WNW,290,1.0,2.0,93,0.00,,---,0.00,271.00,VWS V14.01,2013-06-26 12:59:00,
2013-06-26 09:04:00,72.8,70.7,29.95,WSW,237,3.0,5.0,93,0.00,,---,0.00,221.00,VWS V14.01,2013-06-26 13:04:00,
2013-06-26 09:09:00,73.0,70.9,29.95,WSW,258,3.0,3.0,93,0.00,,---,0.00,257.00,VWS V14.01,2013-06-26 13:09:00,
2013-06-26 09:14:00,73.2,70.7,29.95,WSW,250,0.0,7.0,92,0.00,,---,0.00,186.00,VWS V14.01,2013-06-26 13:14:00,
2013-06-26 09:19:00,73.3,70.8,29.95,NW,312,5.0,5.0,92,0.00,,---,0.00,274.00,VWS V14.01,2013-06-26 13:19:00,
2013-06-26 09:24:00,73.4,70.6,29.95,WNW,284,4.0,6.0,91,0.00,,---,0.00,364.00,VWS V14.01,2013-06-26 13:24:00,
2013-06-26 09:29:00,73.7,71.2,29.94,WSW,238,1.0,3.0,92,0.00,,---,0.00,547.00,VWS V14.01,2013-06-26 13:29:00,
2013-06-26 09:34:00,74.1,71.3,29.95,WNW,298,1.0,9.0,91,0.00,,---,0.00,455.00,VWS V14.01,2013-06-26 13:34:00,
2013-06-26 09:40:00,74.7,71.6,29.95,WSW,247,5.0,5.0,90,0.00,,---,0.00,577.00,VWS V14.01,2013-06-26 13:40:00,
2013-06-26 09:45:00,75.1,71.6,29.95,WNW,296,2.0,6.0,89,0.00,,---,0.00,315.00,VWS V14.01,2013-06-26 13:45:00,
2013-06-26 09:50:00,75.0,71.5,29.95,SW,232,10.0,10.0,89,0.00,,---,0.00,541.00,VWS V14.01,2013-06-26 13:50:00,
2013-06-26 09:55:00,74.9,71.4,29.95,WSW,247,1.0,10.0,89,0.00,,---,0.00,257.00,VWS V14.01,2013-06-26 13:55:00,
2013-06-26 10:00:00,74.7,71.2,29.95,SW,219,0.0,6.0,89,0.00,,---,0.00,336.00,VWS V14.01,2013-06-26 14:00:00,
2013-06-26 10:05:00,74.8,71.7,29.95,WSW,237,0.0,9.0,90,0.00,,---,0.00,359.00,VWS V14.01,2013-06-26 14:05:00,
2013-06-26 10:10:00,75.0,71.5,29.94,WSW,253,4.0,6.0,89,0.00,,---,0.00,424.00,VWS V14.01,2013-06-26 14:10:00,
2013-06-26 10:15:00,75.3,71.8,29.94,SW,232,5.0,7.0,89,0.00,,---,0.00,508.00,VWS V14.01,2013-06-26 14:15:00,
2013-06-26 10:20:00,75.1,71.3,29.95,WSW,257,0.0,7.0,88,0.00,,---,0.00,369.00,VWS V14.01,2013-06-26 14:20:00,
2013-06-26 10:25:00,75.3,72.2,29.94,WSW,241,3.0,11.0,90,0.00,,---,0.00,385.00,VWS V14.01,2013-06-26 14:25:00,
2013-06-26 10:31:00,75.6,72.1,29.94,WSW,248,4.0,5.0,89,0.00,,---,0.00,835.00,VWS V14.01,2013-06-26 14:31:00,
2013-06-26 10:36:00,75.9,72.1,29.94,WSW,248,2.0,6.0,88,0.00,,---,0.00,744.00,VWS V14.01,2013-06-26 14:36:00,
2013-06-26 10:41:00,76.4,72.6,29.93,WNW,300,1.0,5.0,88,0.00,,---,0.00,756.00,VWS V14.01,2013-06-26 14:41:00,
2013-06-26 10:46:00,76.6,72.8,29.93,SW,228,2.0,7.0,88,0.00,,---,0.00,670.00,VWS V14.01,2013-06-26 14:46:00,
2013-06-26 10:51:00,76.6,72.4,29.93,WNW,297,4.0,5.0,87,0.00,,---,0.00,603.00,VWS V14.01,2013-06-26 14:51:00,
2013-06-26 10:56:00,76.9,72.7,29.93,SSW,211,3.0,7.0,87,0.00,,---,0.00,316.00,VWS V14.01,2013-06-26 14:56:00,
2013-06-26 11:01:00,76.7,72.2,29.94,WSW,258,0.0,11.0,86,0.00,,---,0.00,176.00,VWS V14.01,2013-06-26 15:01:00,
2013-06-26 11:06:00,76.2,71.7,29.93,SW,224,0.0,11.0,86,0.00,,---,0.00,267.00,VWS V14.01,2013-06-26 15:06:00,
2013-06-26 11:11:00,75.8,71.7,29.93,WNW,287,0.0,7.0,87,0.00,,---,0.00,209.00,VWS V14.01,2013-06-26 15:11:00,
2013-06-26 11:17:00,75.5,72.0,29.93,WNW,290,0.0,7.0,89,0.00,,---,0.00,200.00,VWS V14.01,2013-06-26 15:17:00,
2013-06-26 11:22:00,75.4,71.9,29.93,WNW,298,0.0,4.0,89,0.00,,---,0.00,202.00,VWS V14.01,2013-06-26 15:22:00,
2013-06-26 11:27:00,75.3,71.8,29.93,ENE,62,0.0,5.0,89,0.00,,---,0.00,258.00,VWS V14.01,2013-06-26 15:27:00,
2013-06-26 11:32:00,75.2,71.7,29.94,West,277,1.0,5.0,89,0.00,,---,0.00,199.00,VWS V14.01,2013-06-26 15:32:00,
2013-06-26 11:37:00,75.2,71.7,29.94,NW,322,0.0,6.0,89,0.00,,---,0.00,269.00,VWS V14.01,2013-06-26 15:37:00,
2013-06-26 11:42:00,75.4,72.3,29.93,WNW,294,1.0,3.0,90,0.00,,---,0.00,229.00,VWS V14.01,2013-06-26 15:42:00,
2013-06-26 11:47:00,75.6,72.5,29.93,WSW,255,0.0,3.0,90,0.00,,---,0.00,295.00,VWS V14.01,2013-06-26 15:47:00,
2013-06-26 11:52:00,75.8,72.3,29.93,WNW,299,2.0,3.0,89,0.00,,---,0.00,272.00,VWS V14.01,2013-06-26 15:52:00,
2013-06-26 11:57:00,75.9,72.1,29.93,West,270,0.0,6.0,88,0.00,,---,0.00,299.00,VWS V14.01,2013-06-26 15:57:00,
2013-06-26 12:03:00,76.0,72.2,29.93,WSW,241,3.0,4.0,88,0.00,,---,0.00,285.00,VWS V14.01,2013-06-26 16:03:00,
2013-06-26 12:08:00,76.0,72.2,29.93,West,273,1.0,7.0,88,0.00,,---,0.00,248.00,VWS V14.01,2013-06-26 16:08:00,
2013-06-26 12:13:00,76.1,72.3,29.93,SW,221,5.0,6.0,88,0.00,,---,0.00,279.00,VWS V14.01,2013-06-26 16:13:00,
2013-06-26 12:18:00,76.1,72.6,29.93,WNW,293,4.0,6.0,89,0.00,,---,0.00,332.00,VWS V14.01,2013-06-26 16:18:00,
2013-06-26 12:23:00,76.1,72.3,29.93,WSW,239,0.0,7.0,88,0.00,,---,0.00,353.00,VWS V14.01,2013-06-26 16:23:00,
2013-06-26 12:28:00,76.2,72.4,29.93,WSW,242,3.0,7.0,88,0.00,,---,0.00,299.00,VWS V14.01,2013-06-26 16:28:00,
2013-06-26 12:33:00,76.1,72.3,29.94,WSW,240,3.0,7.0,88,0.00,,---,0.00,313.00,VWS V14.01,2013-06-26 16:33:00,
2013-06-26 12:38:00,76.1,72.3,29.93,West,260,0.0,7.0,88,0.00,,---,0.00,257.00,VWS V14.01,2013-06-26 16:38:00,
2013-06-26 12:40:00,76.1,72.3,29.93,West,275,1.0,2.0,88,0.00,,---,0.00,257.00,VWS V14.01,2013-06-26 16:40:00,
2013-06-26 12:45:00,76.3,72.8,29.93,SW,236,4.0,6.0,89,0.00,,---,0.00,438.00,VWS V14.01,2013-06-26 16:45:00,
2013-06-26 12:51:00,76.6,72.8,29.93,SW,221,1.0,6.0,88,0.00,,---,0.00,315.00,VWS V14.01,2013-06-26 16:51:00,
2013-06-26 12:56:00,76.7,72.5,29.94,SW,226,0.0,6.0,87,0.00,,---,0.00,429.00,VWS V14.01,2013-06-26 16:56:00,
2013-06-26 13:01:00,76.8,72.3,29.93,SSW,199,1.0,4.0,86,0.00,,---,0.00,329.00,VWS V14.01,2013-06-26 17:01:00,
2013-06-26 13:06:00,77.0,73.5,29.93,SSW,196,2.0,6.0,89,0.00,,---,0.00,738.00,VWS V14.01,2013-06-26 17:06:00,
2013-06-26 13:11:00,77.7,73.2,29.93,SSE,153,1.0,4.0,86,0.00,,---,0.00,740.00,VWS V14.01,2013-06-26 17:11:00,
2013-06-26 13:16:00,78.3,73.4,29.93,WSW,240,1.0,6.0,85,0.00,,---,0.00,413.00,VWS V14.01,2013-06-26 17:16:00,
2013-06-26 16:36:00,81.6,74.1,29.84,SW,222,0.0,5.0,78,0.00,,---,0.00,134.00,VWS V14.01,2013-06-26 20:36:00,
2013-06-26 16:41:00,81.4,74.6,29.83,SW,222,0.0,1.0,80,0.00,,---,0.00,163.00,VWS V14.01,2013-06-26 20:41:00,
2013-06-26 16:46:00,81.2,74.4,29.83,SW,227,1.0,1.0,80,0.00,,---,0.00,163.00,VWS V14.01,2013-06-26 20:46:00,
2013-06-26 16:51:00,80.9,74.5,29.83,SW,222,0.0,1.0,81,0.00,,---,0.00,60.00,VWS V14.01,2013-06-26 20:51:00,
2013-06-26 16:56:00,80.5,73.8,29.83,South,177,0.0,2.0,80,0.00,,---,0.00,40.00,VWS V14.01,2013-06-26 20:56:00,
2013-06-26 17:02:00,79.6,72.9,29.83,SSW,202,0.0,9.0,80,0.00,,---,0.00,67.00,VWS V14.01,2013-06-26 21:02:00,
2013-06-26 17:07:00,78.5,72.2,29.84,SW,226,5.0,10.0,81,0.00,,---,0.00,65.00,VWS V14.01,2013-06-26 21:07:00,
2013-06-26 17:12:00,77.6,71.3,29.84,WSW,240,1.0,6.0,81,0.00,,---,0.00,88.00,VWS V14.01,2013-06-26 21:12:00,
2013-06-26 17:17:00,76.8,70.5,29.84,SSW,197,0.0,10.0,81,0.00,,---,0.00,102.00,VWS V14.01,2013-06-26 21:17:00,
2013-06-26 17:22:00,76.2,70.7,29.84,West,269,0.0,6.0,83,0.00,,---,0.00,113.00,VWS V14.01,2013-06-26 21:22:00,
2013-06-26 17:27:00,76.1,70.9,29.84,WNW,294,0.0,6.0,84,0.00,,---,0.00,113.00,VWS V14.01,2013-06-26 21:27:00,
2013-06-26 17:32:00,76.0,71.2,29.84,WNW,294,0.0,0.0,85,0.00,,---,0.00,109.00,VWS V14.01,2013-06-26 21:32:00,
2013-06-26 17:37:00,76.0,71.5,29.85,WNW,301,3.0,5.0,86,0.00,,---,0.00,113.00,VWS V14.01,2013-06-26 21:37:00,
2013-06-26 17:42:00,75.9,71.4,29.84,WNW,298,0.0,3.0,86,0.00,,---,0.00,125.00,VWS V14.01,2013-06-26 21:42:00,
2013-06-26 17:47:00,75.8,71.3,29.84,SW,228,4.0,5.0,86,0.00,,---,0.00,125.00,VWS V14.01,2013-06-26 21:47:00,
2013-06-26 17:53:00,75.7,70.9,29.83,SW,231,0.0,5.0,85,0.00,,---,0.00,127.00,VWS V14.01,2013-06-26 21:53:00,
2013-06-26 17:58:00,75.6,70.4,29.83,WNW,285,4.0,5.0,84,0.00,,---,0.00,130.00,VWS V14.01,2013-06-26 21:58:00,
2013-06-26 18:03:00,75.5,70.0,29.83,SE,132,3.0,5.0,83,0.00,,---,0.00,135.00,VWS V14.01,2013-06-26 22:03:00,
2013-06-26 18:08:00,75.4,69.5,29.84,WSW,257,0.0,7.0,82,0.00,,---,0.00,158.00,VWS V14.01,2013-06-26 22:08:00,
2013-06-26 18:13:00,75.5,70.3,29.84,South,171,0.0,1.0,84,0.00,,---,0.00,183.00,VWS V14.01,2013-06-26 22:13:00,
2013-06-26 18:18:00,75.6,70.1,29.84,SSW,205,0.0,3.0,83,0.00,,---,0.00,244.00,VWS V14.01,2013-06-26 22:18:00,
2013-06-26 18:23:00,75.9,70.4,29.84,WSW,248,1.0,2.0,83,0.00,,---,0.00,262.00,VWS V14.01,2013-06-26 22:23:00,
2013-06-26 18:28:00,76.2,70.3,29.84,SE,142,0.0,3.0,82,0.00,,---,0.00,348.00,VWS V14.01,2013-06-26 22:28:00,
2013-06-26 18:33:00,76.6,70.3,29.83,WSW,240,0.0,5.0,81,0.00,,---,0.00,399.00,VWS V14.01,2013-06-26 22:33:00,
2013-06-26 18:39:00,77.2,70.9,29.83,West,267,3.0,3.0,81,0.00,,---,0.00,297.00,VWS V14.01,2013-06-26 22:39:00,
2013-06-26 18:44:00,77.5,70.8,29.82,WSW,247,1.0,6.0,80,0.00,,---,0.00,408.00,VWS V14.01,2013-06-26 22:44:00,
2013-06-26 18:49:00,78.0,71.3,29.83,WNW,282,1.0,3.0,80,0.00,,---,0.00,462.00,VWS V14.01,2013-06-26 22:49:00,
2013-06-26 18:54:00,78.6,71.6,29.83,WSW,240,0.0,5.0,79,0.00,,---,0.00,445.00,VWS V14.01,2013-06-26 22:54:00,
2013-06-26 18:59:00,79.1,72.0,29.83,SSW,209,0.0,1.0,79,0.00,,---,0.00,436.00,VWS V14.01,2013-06-26 22:59:00,
2013-06-26 19:04:00,79.5,71.7,29.83,WNW,303,0.0,6.0,77,0.00,,---,0.00,374.00,VWS V14.01,2013-06-26 23:04:00,
2013-06-26 19:09:00,79.6,72.1,29.82,WNW,288,4.0,5.0,78,0.00,,---,0.00,371.00,VWS V14.01,2013-06-26 23:09:00,
2013-06-26 19:14:00,79.7,71.9,29.82,SSE,155,0.0,5.0,77,0.00,,---,0.00,318.00,VWS V14.01,2013-06-26 23:14:00,
2013-06-26 19:19:00,79.8,71.6,29.83,SW,217,0.0,3.0,76,0.00,,---,0.00,304.00,VWS V14.01,2013-06-26 23:19:00,
2013-06-26 19:25:00,79.8,71.6,29.82,South,188,0.0,4.0,76,0.00,,---,0.00,178.00,VWS V14.01,2013-06-26 23:25:00,
2013-06-26 19:30:00,79.8,71.6,29.82,South,188,0.0,0.0,76,0.00,,---,0.00,251.00,VWS V14.01,2013-06-26 23:30:00,
2013-06-26 19:35:00,80.0,72.2,29.82,South,191,0.0,2.0,77,0.00,,---,0.00,243.00,VWS V14.01,2013-06-26 23:35:00,
2013-06-26 19:40:00,80.1,71.9,29.83,SSW,192,0.0,1.0,76,0.00,,---,0.00,225.00,VWS V14.01,2013-06-26 23:40:00,
2013-06-26 19:45:00,79.9,71.3,29.83,West,271,1.0,2.0,75,0.00,,---,0.00,193.00,VWS V14.01,2013-06-26 23:45:00,
2013-06-26 19:50:00,79.5,71.3,29.83,WSW,240,1.0,2.0,76,0.00,,---,0.00,158.00,VWS V14.01,2013-06-26 23:50:00,
2013-06-26 19:55:00,79.2,71.0,29.83,WSW,239,0.0,2.0,76,0.00,,---,0.00,127.00,VWS V14.01,2013-06-26 23:55:00,
2013-06-26 20:00:00,79.0,70.8,29.83,WSW,239,0.0,0.0,76,0.00,,---,0.00,67.00,VWS V14.01,2013-06-27 00:00:00,
2013-06-26 20:05:00,78.7,70.9,29.83,WSW,239,0.0,1.0,77,0.00,,---,0.00,54.00,VWS V14.01,2013-06-27 00:05:00,
2013-06-26 20:11:00,78.3,71.3,29.83,WSW,239,0.0,0.0,79,0.00,,---,0.00,39.00,VWS V14.01,2013-06-27 00:11:00,
2013-06-26 20:16:00,77.6,70.9,29.83,WSW,239,0.0,0.0,80,0.00,,---,0.00,32.00,VWS V14.01,2013-06-27 00:16:00,
2013-06-26 20:21:00,76.9,70.6,29.83,WSW,239,0.0,0.0,81,0.00,,---,0.00,23.00,VWS V14.01,2013-06-27 00:21:00,
2013-06-26 20:26:00,76.2,69.9,29.83,WSW,239,0.0,0.0,81,0.00,,---,0.00,18.00,VWS V14.01,2013-06-27 00:26:00,
2013-06-26 20:31:00,75.5,69.6,29.82,WSW,239,0.0,0.0,82,0.00,,---,0.00,14.00,VWS V14.01,2013-06-27 00:31:00,
2013-06-26 20:36:00,75.0,69.5,29.83,WSW,239,0.0,1.0,83,0.00,,---,0.00,11.00,VWS V14.01,2013-06-27 00:36:00,
2013-06-26 20:41:00,74.5,69.3,29.82,WSW,239,0.0,0.0,84,0.00,,---,0.00,7.00,VWS V14.01,2013-06-27 00:41:00,
2013-06-26 20:46:00,74.0,69.2,29.82,WSW,239,0.0,0.0,85,0.00,,---,0.00,5.00,VWS V14.01,2013-06-27 00:46:00,
2013-06-26 20:51:00,73.7,68.9,29.82,WSW,239,0.0,0.0,85,0.00,,---,0.00,0.00,VWS V14.01,2013-06-27 00:51:00,
2013-06-26 20:57:00,73.4,69.0,29.81,WSW,239,0.0,0.0,86,0.00,,---,0.00,0.00,VWS V14.01,2013-06-27 00:57:00,
2013-06-26 21:02:00,73.0,68.9,29.81,WSW,239,0.0,0.0,87,0.00,,---,0.00,0.00,VWS V14.01,2013-06-27 01:02:00,
2013-06-26 21:07:00,72.7,68.6,29.81,WSW,239,0.0,0.0,87,0.00,,---,0.00,0.00,VWS V14.01,2013-06-27 01:07:00,
2013-06-26 21:12:00,72.5,68.4,29.81,WSW,239,0.0,0.0,87,0.00,,---,0.00,0.00,VWS V14.01,2013-06-27 01:12:00,
2013-06-26 21:17:00,72.2,68.4,29.81,WSW,239,0.0,0.0,88,0.00,,---,0.00,0.00,VWS V14.01,2013-06-27 01:17:00,
2013-06-26 21:22:00,72.0,68.3,29.81,WSW,239,0.0,0.0,88,0.00,,---,0.00,0.00,VWS V14.01,2013-06-27 01:22:00,
2013-06-26 21:27:00,71.8,68.4,29.82,WSW,239,0.0,0.0,89,0.00,,---,0.00,0.00,VWS V14.01,2013-06-27 01:27:00,
2013-06-26 21:32:00,71.6,68.5,29.82,WSW,239,0.0,0.0,90,0.00,,---,0.00,0.00,VWS V14.01,2013-06-27 01:32:00,
2013-06-26 21:38:00,71.5,68.4,29.82,WSW,239,0.0,0.0,90,0.00,,---,0.00,0.00,VWS V14.01,2013-06-27 01:38:00,
2013-06-26 21:43:00,71.5,68.7,29.82,WSW,239,0.0,0.0,91,0.00,,---,0.00,0.00,VWS V14.01,2013-06-27 01:43:00,
2013-06-26 21:48:00,71.4,69.0,29.81,WSW,239,0.0,0.0,92,0.00,,---,0.00,0.00,VWS V14.01,2013-06-27 01:48:00,
2013-06-26 21:53:00,71.4,69.0,29.81,WSW,239,0.0,0.0,92,0.00,,---,0.00,0.00,VWS V14.01,2013-06-27 01:53:00,
2013-06-26 21:58:00,71.4,69.0,29.81,WSW,239,0.0,0.0,92,0.00,,---,0.00,0.00,VWS V14.01,2013-06-27 01:58:00,
2013-06-26 22:03:00,71.3,68.9,29.81,WSW,239,0.0,0.0,92,0.00,,---,0.00,0.00,VWS V14.01,2013-06-27 02:03:00,
2013-06-26 22:08:00,71.1,68.7,29.82,WSW,239,0.0,0.0,92,0.00,,---,0.00,0.00,VWS V14.01,2013-06-27 02:08:00,
2013-06-26 22:13:00,71.1,68.7,29.82,WSW,239,0.0,0.0,92,0.00,,---,0.00,0.00,VWS V14.01,2013-06-27 02:13:00,
2013-06-26 22:19:00,71.2,69.1,29.82,WSW,239,0.0,0.0,93,0.00,,---,0.00,0.00,VWS V14.01,2013-06-27 02:19:00,
2013-06-26 22:24:00,71.2,69.1,29.82,WSW,239,0.0,0.0,93,0.00,,---,0.00,0.00,VWS V14.01,2013-06-27 02:24:00,
2013-06-26 22:29:00,71.2,69.1,29.82,WSW,239,0.0,0.0,93,0.00,,---,0.00,0.00,VWS V14.01,2013-06-27 02:29:00,
2013-06-26 22:34:00,71.2,69.1,29.82,WSW,239,0.0,1.0,93,0.00,,---,0.00,0.00,VWS V14.01,2013-06-27 02:34:00,
2013-06-26 22:39:00,71.0,68.9,29.82,WSW,239,0.0,0.0,93,0.00,,---,0.00,0.00,VWS V14.01,2013-06-27 02:39:00,
2013-06-26 22:44:00,70.9,68.8,29.82,WSW,239,0.0,0.0,93,0.00,,---,0.00,0.00,VWS V14.01,2013-06-27 02:44:00,
2013-06-26 22:49:00,70.8,68.7,29.82,WSW,239,0.0,0.0,93,0.00,,---,0.00,0.00,VWS V14.01,2013-06-27 02:49:00,
2013-06-26 22:54:00,70.6,68.5,29.82,WSW,239,0.0,0.0,93,0.00,,---,0.00,0.00,VWS V14.01,2013-06-27 02:54:00,
2013-06-26 22:59:00,70.5,68.4,29.82,WSW,239,0.0,0.0,93,0.00,,---,0.00,0.00,VWS V14.01,2013-06-27 02:59:00,
2013-06-26 23:04:00,70.3,67.9,29.82,WSW,239,0.0,0.0,92,0.00,,---,0.00,0.00,VWS V14.01,2013-06-27 03:04:00,
2013-06-26 23:10:00,70.3,67.9,29.82,WSW,239,0.0,0.0,92,0.00,,---,0.00,0.00,VWS V14.01,2013-06-27 03:10:00,
2013-06-26 23:15:00,70.3,67.9,29.82,WSW,239,0.0,0.0,92,0.00,,---,0.00,0.00,VWS V14.01,2013-06-27 03:15:00,
2013-06-26 23:20:00,70.2,67.8,29.83,WSW,239,0.0,0.0,92,0.00,,---,0.00,0.00,VWS V14.01,2013-06-27 03:20:00,
2013-06-26 23:25:00,70.2,67.8,29.82,WSW,239,0.0,0.0,92,0.00,,---,0.00,0.00,VWS V14.01,2013-06-27 03:25:00,
2013-06-26 23:30:00,70.2,67.8,29.82,WSW,239,0.0,0.0,92,0.00,,---,0.00,0.00,VWS V14.01,2013-06-27 03:30:00,
2013-06-26 23:35:00,70.1,67.7,29.81,WSW,239,0.0,0.0,92,0.00,,---,0.00,0.00,VWS V14.01,2013-06-27 03:35:00,
2013-06-26 23:40:00,70.0,67.6,29.82,WSW,239,0.0,0.0,92,0.00,,---,0.00,0.00,VWS V14.01,2013-06-27 03:40:00,
2013-06-26 23:45:00,70.0,67.6,29.81,WSW,239,0.0,0.0,92,0.00,,---,0.00,0.00,VWS V14.01,2013-06-27 03:45:00,
2013-06-26 23:50:00,69.9,67.5,29.82,WSW,239,0.0,0.0,92,0.00,,---,0.00,0.00,VWS V14.01,2013-06-27 03:50:00,
2013-06-26 23:56:00,69.9,67.5,29.82,WSW,239,0.0,0.0,92,0.00,,---,0.00,0.00,VWS V14.01,2013-06-27 03:56:00,